Location: Stanford
(52.2833°N, 2.4333°W)
Time: 00:47:41
(UTC+00:00)

Cosmos 1626 - Pass Details

Date: 22 January 2021
Orbit: 490 x 494 km, 82.5° (Epoch: 28 February)

Event Time Altitude Azimuth Distance (km) Brightness Sun altitude
Rises 17:27:50 0° 194° (SSW) 2,566 6.3 -7.5°
Reaches altitude 10° 17:29:56 10° 196° (SSW) 1,688 5.4 -7.8°
Maximum altitude 17:33:38 72° 282° (WNW) 524 2.4 -8.3°
Drops below altitude 10° 17:37:21 10° 7° (N) 1,701 4.6 -8.8°
Sets 17:39:28 0° 10° (N) 2,588 5.5 -9.2°
